AFL2816 URMM-USSS

Flight info

Callsign AFL2816
Flight time 2h 46m
Altitude 35000
Route URILU5M URILU R227 BEMES DCT ITAKA N154 NOGBU N996 KODUM Z210 EKTOB L992 NEBIS NEBIS6S
Aircraft A320/M-MSDIE2E3FGHJ1RWY/LB1U1

Departure

Time 2026-05-05 21:45
Airport Mineralnye Vody Airport (URMM)

Arrival

Time 2026-05-06 00:32
Airport Koltsovo Airport (USSS)
Time Latitude Longitude Altitude Speed Heading
2026-05-05 21:01 44.21753 43.08984 1051 ft 0 kts 212°
2026-05-05 21:35 44.21767 43.08996 1051 ft 4 kts 213°
2026-05-05 21:35 44.21790 43.09017 1051 ft 4 kts 211°
2026-05-05 21:36 44.21813 43.09035 1051 ft 4 kts 193°
2026-05-05 21:36 44.21837 43.09031 1051 ft 4 kts 143°
2026-05-05 21:36 44.21852 43.09010 1051 ft 1 kts 123°
2026-05-05 21:36 44.21855 43.09006 1051 ft 0 kts 123°
2026-05-05 21:41 44.21851 43.09014 1051 ft 3 kts 123°
2026-05-05 21:41 44.21838 43.09040 1051 ft 7 kts 126°
2026-05-05 21:41 44.21801 43.09107 1051 ft 11 kts 123°
2026-05-05 21:41 44.21753 43.09217 1051 ft 16 kts 122°
2026-05-05 21:42 44.21675 43.09349 1051 ft 20 kts 131°
2026-05-05 21:42 44.21596 43.09519 1051 ft 21 kts 122°
2026-05-05 21:42 44.21521 43.09687 1051 ft 17 kts 120°
2026-05-05 21:42 44.21524 43.09844 1051 ft 17 kts 77°
2026-05-05 21:43 44.21553 43.10016 1051 ft 19 kts 77°
2026-05-05 21:43 44.21586 43.10192 1052 ft 16 kts 62°
2026-05-05 21:43 44.21665 43.10276 1050 ft 13 kts 32°
2026-05-05 21:43 44.21730 43.10328 1051 ft 9 kts 18°
2026-05-05 21:44 44.21767 43.10312 1052 ft 4 kts 298°
2026-05-05 21:44 44.21778 43.10286 1054 ft 2 kts 302°
2026-05-05 21:44 44.21783 43.10275 1054 ft 3 kts 302°
2026-05-05 21:44 44.21875 43.10075 1052 ft 58 kts 302°
2026-05-05 21:45 44.22207 43.09339 1055 ft 119 kts 302°
2026-05-05 21:45 44.22743 43.08162 1053 ft 167 kts 302°
2026-05-05 21:45 44.23389 43.06770 1553 ft 170 kts 302°
2026-05-05 21:45 44.24022 43.05382 2239 ft 169 kts 301°
2026-05-05 21:46 44.24645 43.03989 2848 ft 171 kts 301°
2026-05-05 21:46 44.25309 43.02505 3071 ft 191 kts 302°
2026-05-05 21:46 44.26056 43.00837 3243 ft 215 kts 302°
2026-05-05 21:46 44.26878 42.98993 3493 ft 238 kts 302°
2026-05-05 21:47 44.27798 42.96951 3983 ft 255 kts 302°
2026-05-05 21:47 44.28758 42.94836 4863 ft 259 kts 302°
2026-05-05 21:47 44.29731 42.92723 5729 ft 261 kts 306°
2026-05-05 21:47 44.31126 42.91115 6458 ft 267 kts 339°
2026-05-05 21:48 44.32972 42.90893 7174 ft 274 kts 12°
2026-05-05 21:48 44.34644 42.92181 7904 ft 282 kts 45°
2026-05-05 21:48 44.35575 42.94592 8629 ft 290 kts 78°
2026-05-05 21:48 44.35538 42.97421 9378 ft 295 kts 102°
2026-05-05 21:49 44.34932 43.00186 10115 ft 299 kts 108°
2026-05-05 21:49 44.34242 43.03009 10427 ft 318 kts 109°
2026-05-05 21:49 44.33486 43.06021 10589 ft 341 kts 109°
2026-05-05 21:49 44.32675 43.09217 10976 ft 354 kts 109°
2026-05-05 21:50 44.31842 43.12483 11609 ft 358 kts 109°
2026-05-05 21:50 44.31011 43.15724 12273 ft 362 kts 110°
2026-05-05 21:50 44.30149 43.19087 12942 ft 365 kts 110°
2026-05-05 21:50 44.29291 43.22444 13611 ft 369 kts 110°
2026-05-05 21:51 44.28441 43.25781 14203 ft 372 kts 110°
2026-05-05 21:51 44.27574 43.29199 14791 ft 375 kts 110°
2026-05-05 21:51 44.26696 43.32643 15372 ft 378 kts 110°
2026-05-05 21:51 44.25812 43.36106 15960 ft 380 kts 110°
2026-05-05 21:52 44.24020 43.43102 17114 ft 386 kts 110°
2026-05-05 21:52 44.23108 43.46642 17684 ft 389 kts 110°
2026-05-05 21:52 44.22188 43.50196 18242 ft 392 kts 110°
2026-05-05 21:53 44.21258 43.53777 18728 ft 394 kts 110°
2026-05-05 21:53 44.20321 43.57386 19203 ft 397 kts 110°
2026-05-05 21:53 44.19379 43.61019 19710 ft 400 kts 110°
2026-05-05 21:53 44.18442 43.64625 20195 ft 403 kts 110°
2026-05-05 21:54 44.17490 43.68301 20694 ft 405 kts 110°
2026-05-05 21:54 44.16685 43.72079 21167 ft 408 kts 101°
2026-05-05 21:54 44.16224 43.75997 21633 ft 411 kts 99°
2026-05-05 21:54 44.15785 43.79939 22097 ft 413 kts 99°
2026-05-05 21:55 44.15340 43.83913 22544 ft 416 kts 99°
2026-05-05 21:55 44.14889 43.87898 22999 ft 418 kts 99°
2026-05-05 21:55 44.14430 43.91910 23409 ft 421 kts 99°
2026-05-05 21:55 44.13967 43.95952 23784 ft 424 kts 99°
2026-05-05 21:56 44.13505 43.99966 24123 ft 426 kts 99°
2026-05-05 21:56 44.13035 44.04045 24460 ft 428 kts 99°
2026-05-05 21:56 44.12557 44.08147 24787 ft 430 kts 99°
2026-05-05 21:56 44.12078 44.12260 25113 ft 432 kts 99°
2026-05-05 21:57 44.11597 44.16404 25437 ft 435 kts 99°
2026-05-05 21:57 44.11112 44.20563 25767 ft 437 kts 99°
2026-05-05 21:57 44.10624 44.24737 26089 ft 438 kts 99°
2026-05-05 21:57 44.10129 44.28937 26403 ft 440 kts 99°
2026-05-05 21:58 44.09634 44.33147 26697 ft 442 kts 99°
2026-05-05 21:58 44.09137 44.37385 27007 ft 444 kts 99°
2026-05-05 21:58 44.08637 44.41632 27299 ft 446 kts 99°
2026-05-05 21:58 44.08132 44.45905 27587 ft 448 kts 100°
2026-05-05 21:59 44.07621 44.50187 27869 ft 450 kts 100°
2026-05-05 21:59 44.07101 44.54487 28143 ft 452 kts 100°
2026-05-05 21:59 44.06578 44.58808 28402 ft 454 kts 100°
2026-05-05 21:59 44.06082 44.63153 28658 ft 456 kts 99°
2026-05-05 22:00 44.05625 44.67514 28906 ft 457 kts 98°
2026-05-05 22:00 44.05192 44.71844 29148 ft 459 kts 98°
2026-05-05 22:00 44.04754 44.76256 29386 ft 461 kts 98°
2026-05-05 22:00 44.04314 44.80682 29620 ft 462 kts 98°
2026-05-05 22:01 44.03869 44.85113 29834 ft 464 kts 99°
2026-05-05 22:01 44.03414 44.89556 30043 ft 465 kts 99°
2026-05-05 22:01 44.02945 44.94006 30268 ft 465 kts 99°
2026-05-05 22:01 44.02469 44.98442 30526 ft 464 kts 99°
2026-05-05 22:02 44.01988 45.02876 30774 ft 464 kts 99°
2026-05-05 22:02 44.01507 45.07299 31016 ft 463 kts 99°
2026-05-05 22:02 44.01030 45.11727 31259 ft 463 kts 99°
2026-05-05 22:02 44.00556 45.16150 31498 ft 463 kts 99°
2026-05-05 22:03 44.00090 45.20512 31732 ft 463 kts 100°
2026-05-05 22:03 43.99615 45.24932 31967 ft 463 kts 100°
2026-05-05 22:03 43.99134 45.29344 32202 ft 462 kts 100°
2026-05-05 22:03 43.98644 45.33761 32428 ft 462 kts 100°
2026-05-05 22:04 43.98150 45.38172 32652 ft 462 kts 101°
2026-05-05 22:04 43.97654 45.42591 32881 ft 463 kts 101°
2026-05-05 22:04 43.97158 45.46999 33114 ft 463 kts 101°
2026-05-05 22:04 43.96656 45.51413 33336 ft 463 kts 101°
2026-05-05 22:05 43.96158 45.55776 33555 ft 463 kts 101°
2026-05-05 22:05 43.95654 45.60187 33764 ft 463 kts 101°
2026-05-05 22:05 43.95149 45.64599 33981 ft 463 kts 101°
2026-05-05 22:05 43.94644 45.69017 34172 ft 463 kts 101°
2026-05-05 22:06 43.94138 45.73428 34355 ft 463 kts 101°
2026-05-05 22:06 43.93631 45.77842 34532 ft 463 kts 101°
2026-05-05 22:06 43.93122 45.82249 34712 ft 463 kts 101°
2026-05-05 22:06 43.92610 45.86662 34897 ft 463 kts 101°
2026-05-05 22:07 43.92269 45.91106 34979 ft 466 kts 93°
2026-05-05 22:07 43.92275 46.00054 34993 ft 466 kts 92°
2026-05-05 22:08 43.92291 46.09050 34992 ft 467 kts 92°
2026-05-05 22:08 43.92289 46.18051 34990 ft 467 kts 92°
2026-05-05 22:09 43.92276 46.27068 34993 ft 467 kts 92°
2026-05-05 22:09 43.92262 46.36081 34986 ft 467 kts 92°
2026-05-05 22:10 43.92243 46.45102 34986 ft 468 kts 92°
2026-05-05 22:10 43.92216 46.54139 34979 ft 468 kts 93°
2026-05-05 22:11 43.92178 46.63171 34975 ft 468 kts 93°
2026-05-05 22:11 43.92136 46.72202 34970 ft 468 kts 93°
2026-05-05 22:12 43.92087 46.81191 34971 ft 469 kts 94°
2026-05-05 22:12 43.92018 46.90240 34968 ft 469 kts 94°
2026-05-05 22:13 43.91952 46.99315 34970 ft 470 kts 94°
2026-05-05 22:13 43.91886 47.08344 34973 ft 470 kts 94°
2026-05-05 22:14 43.91815 47.17390 34973 ft 470 kts 94°
2026-05-05 22:14 43.91727 47.26435 34967 ft 470 kts 94°
2026-05-05 22:15 43.91633 47.35504 34972 ft 470 kts 94°
2026-05-05 22:15 43.91538 47.44565 34966 ft 470 kts 95°
2026-05-05 22:16 43.91428 47.53622 34968 ft 470 kts 95°
2026-05-05 22:16 43.91308 47.62720 34968 ft 470 kts 95°
2026-05-05 22:17 43.91183 47.71759 34966 ft 470 kts 95°
2026-05-05 22:17 43.91052 47.80848 34965 ft 471 kts 95°
2026-05-05 22:18 43.90922 47.89868 34965 ft 471 kts 95°
2026-05-05 22:18 43.90787 47.98966 34964 ft 471 kts 95°
2026-05-05 22:19 43.90631 48.08018 34960 ft 471 kts 95°
2026-05-05 22:19 43.90464 48.17065 34960 ft 471 kts 96°
2026-05-05 22:20 43.90305 48.26153 34959 ft 471 kts 96°
2026-05-05 22:20 43.90134 48.35217 34955 ft 471 kts 96°
2026-05-05 22:21 43.89956 48.44327 34958 ft 471 kts 96°
2026-05-05 22:21 43.89768 48.53389 34954 ft 471 kts 96°
2026-05-05 22:22 43.89575 48.62456 34951 ft 472 kts 96°
2026-05-05 22:22 43.89375 48.71598 34951 ft 472 kts 96°
2026-05-05 22:23 43.89168 48.80682 34951 ft 472 kts 96°
2026-05-05 22:23 43.88959 48.89746 34948 ft 472 kts 96°
2026-05-05 22:24 43.88732 48.98825 34948 ft 472 kts 97°
2026-05-05 22:24 43.88497 49.07912 34949 ft 473 kts 97°
2026-05-05 22:25 43.88255 49.17038 34954 ft 473 kts 97°
2026-05-05 22:25 43.88007 49.26145 34944 ft 474 kts 97°
2026-05-05 22:26 43.87761 49.35307 34944 ft 474 kts 97°
2026-05-05 22:26 43.87599 49.44386 34940 ft 478 kts 91°
2026-05-05 22:27 43.89011 49.53456 34936 ft 488 kts 71°
2026-05-05 22:27 43.92187 49.61821 34927 ft 492 kts 63°
2026-05-05 22:28 43.95551 49.70076 34932 ft 493 kts 63°
2026-05-05 22:28 43.98909 49.78386 34929 ft 494 kts 63°
2026-05-05 22:29 44.02271 49.86705 34925 ft 494 kts 63°
2026-05-05 22:29 44.05641 49.95055 34931 ft 495 kts 63°
2026-05-05 22:30 44.09007 50.03427 34932 ft 495 kts 63°
2026-05-05 22:30 44.12364 50.11785 34927 ft 495 kts 63°
2026-05-05 22:31 44.15693 50.20108 34922 ft 495 kts 63°
2026-05-05 22:31 44.19034 50.28503 34922 ft 495 kts 63°
2026-05-05 22:32 44.22368 50.36903 34922 ft 495 kts 64°
2026-05-05 22:32 44.25706 50.45319 34920 ft 496 kts 64°
2026-05-05 22:33 44.29040 50.53748 34916 ft 496 kts 64°
2026-05-05 22:33 44.32361 50.62187 34912 ft 496 kts 64°
2026-05-05 22:34 44.35676 50.70643 34915 ft 496 kts 64°
2026-05-05 22:34 44.38970 50.79053 34913 ft 497 kts 64°
2026-05-05 22:35 44.42282 50.87528 34912 ft 496 kts 64°
2026-05-05 22:35 44.45587 50.96013 34903 ft 497 kts 64°
2026-05-05 22:36 44.48888 51.04509 34903 ft 496 kts 64°
2026-05-05 22:36 44.52171 51.13013 34898 ft 496 kts 64°
2026-05-05 22:37 44.55449 51.21529 34895 ft 496 kts 64°
2026-05-05 22:37 44.58720 51.30048 34894 ft 496 kts 64°
2026-05-05 22:38 44.61990 51.38578 34889 ft 496 kts 64°
2026-05-05 22:38 44.65231 51.47057 34890 ft 496 kts 64°
2026-05-05 22:39 44.68480 51.55592 34882 ft 496 kts 64°
2026-05-05 22:39 44.71725 51.64143 34882 ft 496 kts 64°
2026-05-05 22:40 44.74974 51.72709 34885 ft 496 kts 64°
2026-05-05 22:40 44.78212 51.81290 34883 ft 496 kts 64°
2026-05-05 22:41 44.82021 51.89292 34885 ft 498 kts 47°
2026-05-05 22:41 44.87350 51.95453 34879 ft 495 kts 30°
2026-05-05 22:42 44.93251 52.00500 34876 ft 495 kts 30°
2026-05-05 22:42 44.99143 52.05567 34876 ft 495 kts 30°
2026-05-05 22:43 45.04026 52.09782 34877 ft 495 kts 30°
2026-05-05 22:43 45.10860 52.15700 34880 ft 494 kts 30°
2026-05-05 22:44 45.16719 52.20793 34876 ft 494 kts 30°
2026-05-05 22:44 45.21623 52.25063 34875 ft 493 kts 30°
2026-05-05 22:45 45.27469 52.30164 34872 ft 493 kts 30°
2026-05-05 22:45 45.33271 52.35232 34867 ft 492 kts 30°
2026-05-05 22:46 45.39102 52.40332 34862 ft 492 kts 30°
2026-05-05 22:46 45.44931 52.45451 34958 ft 492 kts 31°
2026-05-05 22:46 45.47868 52.48035 34834 ft 501 kts 31°
2026-05-05 22:47 45.50849 52.50659 34853 ft 506 kts 31°
2026-05-05 22:47 45.56855 52.55953 34849 ft 509 kts 31°
2026-05-05 22:48 45.62889 52.61293 34845 ft 509 kts 31°
2026-05-05 22:48 45.68911 52.66639 34837 ft 509 kts 31°
2026-05-05 22:49 45.74898 52.71953 34834 ft 509 kts 31°
2026-05-05 22:49 45.80908 52.77309 34835 ft 509 kts 31°
2026-05-05 22:50 45.86916 52.82679 34833 ft 509 kts 31°
2026-05-05 22:50 45.92921 52.88070 34833 ft 508 kts 32°
2026-05-05 22:51 45.98912 52.93467 34829 ft 508 kts 32°
2026-05-05 22:51 46.04905 52.98866 34824 ft 508 kts 32°
2026-05-05 22:52 46.10858 53.04232 34823 ft 508 kts 32°
2026-05-05 22:52 46.16846 53.09650 34825 ft 508 kts 32°
2026-05-05 22:53 46.22835 53.15080 34824 ft 508 kts 32°
2026-05-05 22:53 46.28811 53.20520 34825 ft 507 kts 32°
2026-05-05 22:54 46.34781 53.25966 34822 ft 507 kts 32°
2026-05-05 22:54 46.40708 53.31390 34821 ft 507 kts 32°
2026-05-05 22:55 46.46673 53.36857 34818 ft 507 kts 32°
2026-05-05 22:55 46.52634 53.42336 34826 ft 507 kts 32°
2026-05-05 22:56 46.58588 53.47834 34827 ft 507 kts 32°
2026-05-05 22:56 46.64536 53.53339 34829 ft 506 kts 32°
2026-05-05 22:57 46.70475 53.58840 34823 ft 505 kts 32°
2026-05-05 22:57 46.76364 53.64313 34827 ft 505 kts 32°
2026-05-05 22:58 46.82283 53.69828 34826 ft 505 kts 32°
2026-05-05 22:58 46.88201 53.75354 34826 ft 505 kts 32°
2026-05-05 22:59 46.94113 53.80891 34827 ft 504 kts 32°
2026-05-05 22:59 47.00018 53.86427 34826 ft 504 kts 32°
2026-05-05 23:00 47.08857 53.94751 34821 ft 503 kts 32°
2026-05-05 23:00 47.14702 54.00283 34821 ft 503 kts 32°
2026-05-05 23:01 47.20578 54.05853 34821 ft 502 kts 32°
2026-05-05 23:01 47.26434 54.11433 34811 ft 501 kts 33°
2026-05-05 23:02 47.32287 54.17021 34809 ft 501 kts 33°
2026-05-05 23:02 47.38148 54.22616 34807 ft 501 kts 33°
2026-05-05 23:03 47.43992 54.28198 34806 ft 501 kts 33°
2026-05-05 23:03 47.49830 54.33804 34805 ft 500 kts 33°
2026-05-05 23:04 47.55665 54.39436 34799 ft 500 kts 33°
2026-05-05 23:04 47.61456 54.45026 34807 ft 500 kts 33°
2026-05-05 23:05 47.67281 54.50669 34806 ft 500 kts 33°
2026-05-05 23:05 47.73099 54.56328 34808 ft 500 kts 33°
2026-05-05 23:06 47.78913 54.61993 34804 ft 500 kts 33°
2026-05-05 23:06 47.84718 54.67660 34810 ft 499 kts 33°
2026-05-05 23:07 47.90522 54.73345 34808 ft 499 kts 33°
2026-05-05 23:07 47.96297 54.79022 34812 ft 498 kts 33°
2026-05-05 23:08 48.02076 54.84710 34812 ft 498 kts 33°
2026-05-05 23:08 48.07860 54.90421 34812 ft 497 kts 33°
2026-05-05 23:09 48.13630 54.96129 34812 ft 496 kts 33°
2026-05-05 23:09 48.19356 55.01824 34818 ft 495 kts 33°
2026-05-05 23:10 48.25099 55.07530 34817 ft 495 kts 33°
2026-05-05 23:10 48.30828 55.13253 34816 ft 494 kts 33°
2026-05-05 23:11 48.36537 55.18970 34816 ft 494 kts 33°
2026-05-05 23:11 48.42231 55.24683 34821 ft 493 kts 33°
2026-05-05 23:12 48.47946 55.30427 34815 ft 493 kts 33°
2026-05-05 23:12 48.53621 55.36153 34813 ft 493 kts 33°
2026-05-05 23:13 48.59339 55.41938 34811 ft 493 kts 33°
2026-05-05 23:13 48.65018 55.47703 34811 ft 493 kts 33°
2026-05-05 23:14 48.70697 55.53480 34813 ft 493 kts 33°
2026-05-05 23:14 48.76385 55.59268 34814 ft 493 kts 33°
2026-05-05 23:15 48.82086 55.65096 34819 ft 493 kts 33°
2026-05-05 23:15 48.87779 55.70936 34825 ft 493 kts 33°
2026-05-05 23:16 48.93447 55.76769 34829 ft 493 kts 33°
2026-05-05 23:16 48.99113 55.82627 34830 ft 494 kts 33°
2026-05-05 23:17 49.04805 55.88517 34834 ft 493 kts 33°
2026-05-05 23:17 49.10450 55.94379 34838 ft 493 kts 33°
2026-05-05 23:18 49.16117 56.00282 34842 ft 493 kts 33°
2026-05-05 23:18 49.21765 56.06176 34841 ft 493 kts 33°
2026-05-05 23:19 49.27458 56.12130 34844 ft 493 kts 33°
2026-05-05 23:19 49.33093 56.18046 34848 ft 493 kts 33°
2026-05-05 23:20 49.38732 56.23984 34849 ft 493 kts 33°
2026-05-05 23:20 49.44400 56.29956 34854 ft 494 kts 33°
2026-05-05 23:21 49.50051 56.35947 34856 ft 494 kts 34°
2026-05-05 23:21 49.55725 56.41981 34862 ft 494 kts 33°
2026-05-05 23:22 49.61347 56.47969 34866 ft 494 kts 34°
2026-05-05 23:22 49.66988 56.53998 34869 ft 494 kts 34°
2026-05-05 23:23 49.72757 56.59835 34869 ft 493 kts 25°
2026-05-05 23:23 49.78867 56.64491 34879 ft 492 kts 24°
2026-05-05 23:24 49.85035 56.69188 34880 ft 493 kts 24°
2026-05-05 23:24 49.91176 56.73900 34887 ft 493 kts 24°
2026-05-05 23:25 49.97335 56.78635 34896 ft 493 kts 24°
2026-05-05 23:25 50.03467 56.83349 34896 ft 493 kts 24°
2026-05-05 23:26 50.09592 56.88089 34901 ft 494 kts 24°
2026-05-05 23:26 50.15757 56.92873 34910 ft 493 kts 24°
2026-05-05 23:27 50.21904 56.97646 34918 ft 493 kts 24°
2026-05-05 23:27 50.28006 57.02392 34927 ft 493 kts 24°
2026-05-05 23:28 50.34139 57.07192 34928 ft 492 kts 24°
2026-05-05 23:28 50.40266 57.11990 34927 ft 491 kts 24°
2026-05-05 23:29 50.46381 57.16790 34931 ft 491 kts 24°
2026-05-05 23:29 50.52444 57.21581 34941 ft 491 kts 24°
2026-05-05 23:30 50.57558 57.25624 34945 ft 490 kts 24°
2026-05-05 23:30 50.64630 57.31219 34952 ft 489 kts 24°
2026-05-05 23:31 50.70711 57.36056 34949 ft 487 kts 24°
2026-05-05 23:31 50.76713 57.40854 34948 ft 487 kts 24°
2026-05-05 23:32 50.82756 57.45689 34951 ft 486 kts 24°
2026-05-05 23:32 50.88876 57.50125 34954 ft 482 kts 14°
2026-05-05 23:33 50.95281 57.53130 34971 ft 479 kts 13°
2026-05-05 23:33 51.01666 57.56112 34977 ft 478 kts 13°
2026-05-05 23:34 51.08040 57.59115 34983 ft 477 kts 13°
2026-05-05 23:34 51.14405 57.62125 34990 ft 476 kts 13°
2026-05-05 23:35 51.20714 57.65113 34998 ft 476 kts 13°
2026-05-05 23:35 51.27063 57.68123 34999 ft 475 kts 13°
2026-05-05 23:36 51.33399 57.71139 35001 ft 475 kts 13°
2026-05-05 23:36 51.39723 57.74164 35002 ft 474 kts 13°
2026-05-05 23:37 51.46032 57.77192 35009 ft 473 kts 13°
2026-05-05 23:37 51.52337 57.80228 35013 ft 472 kts 13°
2026-05-05 23:38 51.58590 57.83233 35016 ft 472 kts 13°
2026-05-05 23:38 51.64875 57.86274 35021 ft 471 kts 13°
2026-05-05 23:39 51.71147 57.89314 35020 ft 471 kts 13°
2026-05-05 23:39 51.77418 57.92346 35024 ft 470 kts 13°
2026-05-05 23:40 51.83677 57.95399 35029 ft 470 kts 13°
2026-05-05 23:40 51.89935 57.98466 35027 ft 469 kts 13°
2026-05-05 23:41 51.96187 58.01538 35029 ft 469 kts 13°
2026-05-05 23:41 52.02381 58.04582 35035 ft 468 kts 13°
2026-05-05 23:42 52.08614 58.07655 35037 ft 468 kts 13°
2026-05-05 23:42 52.14832 58.10731 35041 ft 467 kts 13°
2026-05-05 23:43 52.21048 58.13813 35041 ft 467 kts 13°
2026-05-05 23:43 52.27256 58.16905 35047 ft 466 kts 13°
2026-05-05 23:44 52.32414 58.19480 35045 ft 466 kts 13°
2026-05-05 23:44 52.38617 58.22583 35047 ft 465 kts 13°
2026-05-05 23:45 52.44808 58.25693 35051 ft 465 kts 13°
2026-05-05 23:45 52.50992 58.28800 35048 ft 465 kts 13°
2026-05-05 23:46 52.57168 58.31917 35042 ft 464 kts 13°
2026-05-05 23:46 52.63339 58.35062 35050 ft 464 kts 14°
2026-05-05 23:47 52.69468 58.38249 35052 ft 464 kts 14°
2026-05-05 23:47 52.75622 58.41468 35055 ft 463 kts 14°
2026-05-05 23:48 52.81761 58.44673 35040 ft 462 kts 14°
2026-05-05 23:48 52.87890 58.47883 35041 ft 462 kts 14°
2026-05-05 23:49 52.94015 58.51093 35042 ft 461 kts 14°
2026-05-05 23:49 53.00134 58.54297 35048 ft 461 kts 14°
2026-05-05 23:50 53.06201 58.57495 35053 ft 460 kts 15°
2026-05-05 23:50 53.12305 58.60741 35054 ft 459 kts 15°
2026-05-05 23:51 53.18394 58.63971 35051 ft 459 kts 15°
2026-05-05 23:51 53.24468 58.67204 35050 ft 458 kts 15°
2026-05-05 23:52 53.30542 58.70452 35051 ft 458 kts 15°
2026-05-05 23:52 53.36603 58.73704 35048 ft 457 kts 15°
2026-05-05 23:53 53.42621 58.76904 35052 ft 456 kts 14°
2026-05-05 23:53 53.48700 58.79909 35050 ft 455 kts 14°
2026-05-05 23:54 53.54785 58.82838 35049 ft 454 kts 14°
2026-05-05 23:54 53.60860 58.85816 35049 ft 454 kts 14°
2026-05-05 23:55 53.66912 58.88843 35049 ft 453 kts 14°
2026-05-05 23:55 53.72962 58.91880 35048 ft 453 kts 15°
2026-05-05 23:56 53.78960 58.94887 35047 ft 452 kts 14°
2026-05-05 23:56 53.84991 58.97908 35050 ft 452 kts 15°
2026-05-05 23:57 53.91016 59.00935 35051 ft 451 kts 15°
2026-05-05 23:57 53.97008 59.03965 35053 ft 450 kts 15°
2026-05-05 23:58 54.03000 59.07006 35056 ft 450 kts 15°
2026-05-05 23:58 54.08982 59.10103 35059 ft 449 kts 15°
2026-05-05 23:59 54.14949 59.13237 35061 ft 448 kts 15°
2026-05-05 23:59 54.20857 59.16339 35059 ft 447 kts 15°
2026-05-06 00:00 54.26808 59.19456 35059 ft 446 kts 15°
2026-05-06 00:00 54.32741 59.22568 35062 ft 446 kts 15°
2026-05-06 00:01 54.38661 59.25691 35059 ft 445 kts 15°
2026-05-06 00:01 54.44572 59.28816 35054 ft 444 kts 15°
2026-05-06 00:02 54.50431 59.31922 35055 ft 443 kts 15°
2026-05-06 00:02 54.56359 59.35088 35051 ft 443 kts 16°
2026-05-06 00:03 54.62211 59.38220 35044 ft 443 kts 16°
2026-05-06 00:03 54.68101 59.41382 35036 ft 443 kts 16°
2026-05-06 00:04 54.73998 59.44537 35037 ft 443 kts 15°
2026-05-06 00:04 54.79901 59.47645 35038 ft 444 kts 15°
2026-05-06 00:05 54.88773 59.52291 35036 ft 444 kts 15°
2026-05-06 00:06 54.94647 59.55395 35033 ft 444 kts 15°
2026-05-06 00:06 55.00560 59.58540 35024 ft 444 kts 15°
2026-05-06 00:07 55.06471 59.61698 35023 ft 444 kts 15°
2026-05-06 00:07 55.12388 59.64855 35017 ft 445 kts 15°
2026-05-06 00:08 55.18309 59.68027 35011 ft 445 kts 15°
2026-05-06 00:08 55.24257 59.71059 35004 ft 445 kts 13°
2026-05-06 00:08 55.27270 59.72300 34660 ft 445 kts 11°
2026-05-06 00:09 55.30325 59.73417 33643 ft 451 kts 10°
2026-05-06 00:09 55.33409 59.74477 32720 ft 451 kts 10°
2026-05-06 00:09 55.36449 59.75521 31956 ft 449 kts 10°
2026-05-06 00:09 55.39478 59.76599 31419 ft 442 kts 11°
2026-05-06 00:10 55.42472 59.77736 30821 ft 437 kts 12°
2026-05-06 00:10 55.45425 59.78936 30228 ft 433 kts 12°
2026-05-06 00:10 55.48340 59.80166 29595 ft 428 kts 13°
2026-05-06 00:10 55.51218 59.81391 29046 ft 423 kts 13°
2026-05-06 00:11 55.54063 59.82590 28485 ft 418 kts 12°
2026-05-06 00:11 55.56869 59.83758 27933 ft 413 kts 12°
2026-05-06 00:11 55.59658 59.84908 27387 ft 409 kts 12°
2026-05-06 00:11 55.62413 59.86038 26849 ft 405 kts 12°
2026-05-06 00:12 55.65149 59.87159 26328 ft 402 kts 12°
2026-05-06 00:12 55.67827 59.88257 25816 ft 398 kts 12°
2026-05-06 00:12 55.70548 59.89379 25306 ft 395 kts 12°
2026-05-06 00:12 55.73178 59.90465 24820 ft 392 kts 12°
2026-05-06 00:13 55.75838 59.91567 24333 ft 390 kts 12°
2026-05-06 00:13 55.78471 59.92663 23868 ft 387 kts 12°
2026-05-06 00:13 55.81084 59.93754 23375 ft 385 kts 12°
2026-05-06 00:13 55.83677 59.94839 22914 ft 380 kts 12°
2026-05-06 00:14 55.86240 59.95914 22477 ft 376 kts 12°
2026-05-06 00:14 55.88775 59.96975 22036 ft 372 kts 12°
2026-05-06 00:14 55.91277 59.98071 21601 ft 369 kts 16°
2026-05-06 00:14 55.93658 59.99717 21162 ft 367 kts 22°
2026-05-06 00:15 55.95955 60.01530 20722 ft 364 kts 22°
2026-05-06 00:15 55.98294 60.03380 20269 ft 362 kts 22°
2026-05-06 00:15 56.00562 60.05173 19815 ft 361 kts 22°
2026-05-06 00:15 56.02849 60.06982 19355 ft 359 kts 22°
2026-05-06 00:16 56.05135 60.08793 18887 ft 359 kts 22°
2026-05-06 00:16 56.07417 60.10608 18423 ft 359 kts 22°
2026-05-06 00:16 56.09695 60.12420 17916 ft 358 kts 22°
2026-05-06 00:16 56.11967 60.14223 17443 ft 356 kts 22°
2026-05-06 00:17 56.14223 60.16018 16985 ft 354 kts 22°
2026-05-06 00:17 56.16468 60.17810 16526 ft 352 kts 22°
2026-05-06 00:17 56.18703 60.19596 16074 ft 351 kts 22°
2026-05-06 00:17 56.20933 60.21376 15615 ft 350 kts 22°
2026-05-06 00:18 56.23154 60.23151 15174 ft 349 kts 22°
2026-05-06 00:18 56.25366 60.24921 14728 ft 348 kts 22°
2026-05-06 00:18 56.27577 60.26698 14274 ft 347 kts 22°
2026-05-06 00:18 56.29749 60.28448 13825 ft 346 kts 22°
2026-05-06 00:19 56.31942 60.30214 13339 ft 345 kts 22°
2026-05-06 00:19 56.34132 60.31978 12870 ft 343 kts 22°
2026-05-06 00:19 56.36300 60.33725 12412 ft 341 kts 22°
2026-05-06 00:19 56.38456 60.35466 11943 ft 338 kts 22°
2026-05-06 00:20 56.39927 60.36656 11625 ft 337 kts 22°
2026-05-06 00:20 56.42061 60.38387 11166 ft 335 kts 22°
2026-05-06 00:20 56.44178 60.40104 10684 ft 333 kts 22°
2026-05-06 00:20 56.46276 60.41814 10306 ft 328 kts 24°
2026-05-06 00:21 56.48146 60.44036 10178 ft 318 kts 41°
2026-05-06 00:21 56.49518 60.47078 10054 ft 308 kts 58°
2026-05-06 00:21 56.50316 60.50609 9890 ft 301 kts 76°
2026-05-06 00:21 56.50595 60.54361 9412 ft 303 kts 84°
2026-05-06 00:22 56.50769 60.58071 9107 ft 297 kts 84°
2026-05-06 00:22 56.50939 60.61777 8784 ft 293 kts 84°
2026-05-06 00:22 56.51107 60.65432 8400 ft 291 kts 84°
2026-05-06 00:22 56.51273 60.69082 8019 ft 290 kts 84°
2026-05-06 00:23 56.51441 60.72708 7631 ft 289 kts 84°
2026-05-06 00:23 56.51607 60.76313 7235 ft 287 kts 85°
2026-05-06 00:23 56.51769 60.79907 6846 ft 286 kts 85°
2026-05-06 00:23 56.51929 60.83487 6459 ft 285 kts 85°
2026-05-06 00:24 56.52088 60.87056 6070 ft 283 kts 85°
2026-05-06 00:24 56.52246 60.90610 5681 ft 282 kts 84°
2026-05-06 00:24 56.52723 60.93895 5549 ft 268 kts 63°
2026-05-06 00:24 56.53771 60.96521 5423 ft 250 kts 40°
2026-05-06 00:25 56.55074 60.98499 5286 ft 240 kts 37°
2026-05-06 00:25 56.56354 61.00410 5007 ft 236 kts 37°
2026-05-06 00:25 56.57619 61.02305 4691 ft 236 kts 37°
2026-05-06 00:25 56.58881 61.04197 4366 ft 235 kts 37°
2026-05-06 00:26 56.60141 61.06082 4020 ft 234 kts 37°
2026-05-06 00:26 56.61400 61.07959 3691 ft 234 kts 37°
2026-05-06 00:26 56.62656 61.09839 3389 ft 233 kts 36°
2026-05-06 00:26 56.64026 61.11343 3217 ft 230 kts 17°
2026-05-06 00:27 56.65572 61.11914 3044 ft 225 kts 356°
2026-05-06 00:27 56.67100 61.11582 2867 ft 220 kts 345°
2026-05-06 00:27 56.68575 61.11065 2757 ft 211 kts 344°
2026-05-06 00:27 56.69987 61.10577 2698 ft 201 kts 344°
2026-05-06 00:28 56.71343 61.10055 2699 ft 196 kts 334°
2026-05-06 00:28 56.72421 61.08769 2727 ft 182 kts 307°
2026-05-06 00:28 56.72998 61.06894 2713 ft 161 kts 283°
2026-05-06 00:28 56.73123 61.04971 2697 ft 149 kts 273°
2026-05-06 00:29 56.73198 61.03122 2709 ft 145 kts 273°
2026-05-06 00:29 56.73274 61.01294 2707 ft 145 kts 273°
2026-05-06 00:29 56.73349 60.99465 2592 ft 145 kts 273°
2026-05-06 00:29 56.73425 60.97640 2442 ft 144 kts 273°
2026-05-06 00:30 56.73498 60.95827 2257 ft 143 kts 272°
2026-05-06 00:30 56.73572 60.94027 2079 ft 142 kts 273°
2026-05-06 00:30 56.73650 60.92231 1886 ft 142 kts 272°
2026-05-06 00:30 56.73721 60.90462 1708 ft 143 kts 272°
2026-05-06 00:31 56.73793 60.88660 1476 ft 143 kts 272°
2026-05-06 00:31 56.73870 60.86851 1286 ft 144 kts 272°
2026-05-06 00:31 56.73946 60.85020 1089 ft 146 kts 272°
2026-05-06 00:31 56.74025 60.83163 906 ft 147 kts 272°
2026-05-06 00:32 56.74097 60.81321 777 ft 138 kts 274°
2026-05-06 00:32 56.74152 60.79870 774 ft 90 kts 275°
2026-05-06 00:32 56.74186 60.79057 774 ft 43 kts 274°
2026-05-06 00:32 56.74207 60.78565 774 ft 31 kts 274°
2026-05-06 00:33 56.74220 60.78233 774 ft 17 kts 274°
2026-05-06 00:33 56.74227 60.78048 774 ft 12 kts 278°
2026-05-06 00:33 56.74286 60.78015 774 ft 9 kts 21°
2026-05-06 00:33 56.74341 60.78060 774 ft 8 kts 24°
2026-05-06 00:34 56.74389 60.78100 774 ft 7 kts 25°
2026-05-06 00:34 56.74430 60.78135 774 ft 6 kts 25°
2026-05-06 00:34 56.74466 60.78149 774 ft 5 kts 360°
2026-05-06 00:34 56.74501 60.78148 774 ft 7 kts 359°
2026-05-06 00:35 56.74571 60.78147 774 ft 13 kts
2026-05-06 00:35 56.74681 60.78148 774 ft 19 kts
2026-05-06 00:35 56.74807 60.78148 774 ft 13 kts
2026-05-06 00:35 56.74855 60.78231 774 ft 9 kts 86°
2026-05-06 00:36 56.74855 60.78340 774 ft 9 kts 90°
2026-05-06 00:36 56.74856 60.78464 774 ft 11 kts 90°
2026-05-06 00:36 56.74855 60.78618 774 ft 14 kts 90°
2026-05-06 00:36 56.74855 60.78807 774 ft 16 kts 90°
2026-05-06 00:37 56.74857 60.79033 774 ft 19 kts 90°
2026-05-06 00:37 56.74857 60.79279 774 ft 19 kts 90°
2026-05-06 00:37 56.74857 60.79500 774 ft 11 kts 90°
2026-05-06 00:37 56.74858 60.79597 774 ft 5 kts 76°
2026-05-06 00:38 56.74882 60.79623 774 ft 4 kts
2026-05-06 00:38 56.74904 60.79622 774 ft 3 kts 357°
2026-05-06 00:38 56.74917 60.79623 774 ft 1 kts
2026-05-06 00:38 56.74918 60.79623 774 ft 0 kts
2026-05-06 00:48 56.74917 60.79623 774 ft 0 kts